Theta_e
321 318 317 315 316 316 315 315 311 305 305 308 308 313 312 310 313 310 311 319 317 317 317 313 311 309 308 308 306 306 305 306 306 307 307 307 307 308
321 318 317 314 314 315 315 315 314 311 306 309 306 307 309 309 311 309 313 317 318 316 313 310 307 306 306 305 304 303 303 303 304 304 304 305 307 308
319 317 314 313 313 315 314 312 310 310 304 304 304 303 303 302 301 300 304 305 308 310 307 305 304 305 305 304 303 303 303 302 302 302 303 304 305 306
318 316 312 313 313 313 311 309 309 308 307 303 301 300 300 300 298 298 300 302 302 309 307 306 306 306 305 304 303 302 303 301 300 301 302 304 302 303
314 314 312 312 311 311 310 308 307 307 305 303 298 299 298 299 297 298 298 298 301 302 305 305 304 304 305 304 303 302 302 300 299 299 299 300 301 301
311 311 311 311 310 309 308 306 306 304 303 300 298 297 297 297 297 296 295 296 296 298 301 302 303 303 303 303 302 303 301 299 298 298 299 299 299 299
309 310 310 312 313 311 307 305 304 302 301 299 296 295 294 294 294 295 294 293 293 295 294 295 295 297 298 301 301 301 301 300 299 298 298 297 298 298
306 308 311 313 313 313 311 309 305 300 298 296 295 294 292 292 292 292 291 292 292 293 290 290 292 291 292 294 300 298 298 299 298 296 296 297 297 297
304 304 304 305 305 303 305 304 303 305 302 293 289 288 287 288 289 289 288 288 288 289 289 287 290 289 291 297 298 298 298 297 296 296 296 296 296 297
303 302 301 300 300 296 294 294 295 294 293 293 289 288 288 289 289 289 288 288 289 289 288 284 289 289 290 291 298 297 296 297 296 296 296 296 296 296
299 297 296 295 303 302 294 293 293 294 300 300 299 299 298 297 295 289 286 285 284 286 288 285 285 285 286 287 293 295 295 296 297 297 296 295 295 295
297 297 302 299 303 303 294 292 290 290 292 292 292 295 294 294 296 288 287 284 283 282 287 284 286 287 282 286 290 290 290 294 295 295 295 295 296 288
295 294 295 302 303 302 299 293 292 292 294 290 289 289 289 289 288 288 290 290 287 287 291 290 289 287 287 286 286 286 286 287 288 290 294 294 294 293
294 294 297 301 301 301 298 300 299 296 291 289 288 287 286 286 287 288 291 292 293 291 292 291 288 287 286 286 282 285 286 286 288 289 289 292 293 293
296 298 299 299 299 296 297 298 295 289 288 287 286 285 285 286 289 291 292 292 292 291 294 292 288 287 286 283 283 282 285 285 288 287 286 287 288 289
297 295 295 295 296 294 291 290 289 288 287 286 285 285 286 286 288 290 285 285 285 287 289 288 287 287 283 283 285 284 284 285 288 286 284 285 288 289
292 290 288 288 287 286 287 288 287 287 286 285 284 284 286 287 285 287 287 286 284 282 282 286 286 285 284 283 281 283 283 287 286 283 284 284 284 287
291 288 286 286 285 285 285 285 286 287 285 285 284 286 286 285 285 286 287 286 283 282 284 283 283 282 283 283 289 283 283 283 284 285 285 283 280 285
289 288 286 286 285 285 285 285 284 285 285 284 284 284 285 285 284 284 284 284 282 282 283 285 285 282 277 278 281 290 282 284 284 283 282 280 280 283
290 288 287 286 285 285 285 285 285 285 284 285 286 286 285 285 283 283 283 283 282 283 282 282 283 281 280 281 281 283 289 283 282 282 282 283 283 289
289 289 288 287 286 286 286 286 285 284 284 286 286 285 285 284 283 282 282 283 283 282 281 280 281 288 284 283 279 279 282 288 288 283 282 281 280 281
290 289 288 288 287 286 286 286 284 284 283 285 285 284 283 283 281 282 282 282 282 282 282 282 283 284 280 281 279 280 279 281 285 288 290 288 281 277
289 289 288 287 287 286 286 285 284 283 284 285 284 282 281 281 281 280 282 283 282 281 282 281 282 282 282 282 282 279 279 279 279 280 280 287 288 289
Wind_Speed
6 7 6 3 3 4 4 2 3 3 3 3 1 3 4 4 5 3 4 9 8 8 11 8 6 6 5 4 3 3 3 5 5 7 8 7 7 7
5 7 5 4 5 3 5 3 2 2 3 2 3 2 4 6 8 6 4 6 11 11 9 7 4 3 5 4 3 2 1 2 4 6 6 6 7 6
7 9 7 8 6 5 5 4 4 2 3 3 3 6 6 5 5 5 5 6 4 7 6 3 1 4 4 4 3 2 1 2 3 5 4 5 6 8
5 8 10 7 7 8 6 5 4 3 3 3 3 4 4 4 4 4 4 4 3 4 3 2 6 6 6 4 3 1 2 2 2 2 5 7 4 6
4 4 6 8 8 7 6 4 3 4 3 3 2 1 2 1 3 2 1 2 1 2 4 4 5 5 4 5 2 2 3 2 1 1 3 5 5 5
6 6 6 6 9 8 6 5 4 4 3 3 2 2 2 1 1 1 1 1 2 3 4 2 2 2 4 3 3 6 4 3 2 0 1 4 6 6
10 8 7 11 15 11 6 4 4 4 4 3 2 2 1 1 1 2 2 2 3 2 1 1 2 1 2 4 3 2 5 5 3 2 4 6 8 9
11 10 11 15 16 18 16 13 8 5 3 3 2 3 3 2 2 1 1 1 2 4 3 4 1 1 1 3 7 4 3 5 3 1 4 8 8 9
10 10 10 9 13 11 18 19 17 19 16 7 9 5 5 4 3 5 5 3 2 2 4 3 2 1 2 4 5 3 3 3 3 6 7 10 11 10
11 9 8 8 8 11 12 11 11 11 10 9 8 5 5 5 4 1 1 1 3 3 3 1 4 3 3 4 2 1 0 5 6 7 8 11 12 12
10 9 8 7 16 17 10 10 8 7 13 16 14 13 13 12 11 5 5 5 4 3 4 2 3 3 4 4 3 2 3 8 11 11 10 12 11 12
10 8 15 9 11 15 7 7 6 5 5 4 3 4 5 7 13 7 4 4 2 3 3 3 3 3 4 3 2 2 4 9 11 9 9 11 13 2
7 5 4 14 17 18 15 7 6 5 6 4 4 5 5 5 4 5 5 3 2 1 2 2 3 3 2 3 2 3 2 4 3 4 9 10 9 5
8 4 7 16 17 17 10 13 11 8 4 4 5 5 5 4 4 4 5 4 3 3 2 1 1 1 2 2 3 3 4 4 4 3 3 6 11 12
7 14 17 16 16 11 12 14 13 5 4 5 4 4 3 3 4 4 5 5 4 4 4 2 2 3 1 2 3 3 6 3 1 2 3 3 3 4
12 8 11 11 10 9 9 7 4 4 5 5 5 3 4 4 3 3 2 4 3 3 5 5 4 3 2 3 3 4 3 2 3 3 2 3 4 5
8 4 3 4 4 4 4 5 4 5 5 4 4 4 4 4 3 4 4 4 3 4 4 4 4 4 4 4 3 4 3 1 3 3 3 3 4 5
4 4 3 4 4 3 4 3 4 6 4 4 4 4 5 5 5 4 4 4 4 4 4 3 3 4 4 5 2 2 3 3 3 4 4 3 3 4
4 4 4 4 4 4 4 4 4 3 4 4 5 4 4 5 6 5 5 5 4 4 5 6 5 3 3 6 4 2 3 4 3 3 3 3 4 5
4 4 4 4 4 4 3 3 3 4 4 4 4 3 3 3 4 5 5 5 5 5 5 5 4 4 4 5 5 5 11 4 4 5 4 2 4 11
4 4 5 4 4 4 4 4 4 4 3 3 3 3 4 3 3 5 5 10 9 4 6 5 5 17 5 4 5 5 5 12 11 3 3 3 3 3
4 5 4 4 4 4 4 3 3 3 4 4 3 3 2 2 2 3 3 3 4 5 5 5 7 5 3 3 5 5 4 4 9 13 9 9 3 2
5 5 4 5 4 4 3 3 5 4 4 2 3 2 3 2 2 4 4 3 5 6 7 7 6 5 5 6 8 4 5 5 3 4 4 12 14 12
Wind_Direction
177 173 173 160 149 144 126 91 117 130 205 211 140 172 128 117 138 180 179 175 181 181 148 141 142 138 131 127 106 88 65 50 39 24 358 353 337 334
168 163 152 159 143 147 133 136 109 92 164 286 70 97 101 78 52 39 81 128 142 135 131 127 148 164 144 142 151 128 74 66 42 10 355 355 337 13
159 171 164 158 160 157 135 116 107 77 116 55 71 22 50 75 65 54 57 48 73 112 104 96 260 240 181 168 180 216 266 109 25 360 348 335 333 342
170 174 162 161 160 140 129 114 122 116 135 114 52 44 48 35 52 52 30 52 29 78 37 310 263 250 213 197 222 282 151 115 20 2 352 348 330 336
103 136 148 152 134 124 115 113 91 67 75 119 123 96 64 52 53 49 55 46 356 347 295 269 282 291 254 210 224 206 150 141 92 19 2 353 348 324
84 90 101 120 128 108 97 88 83 97 91 99 87 88 80 68 97 163 265 229 245 236 219 272 155 100 75 93 306 187 186 192 250 238 38 349 321 316
87 78 93 103 103 105 103 94 131 105 97 92 91 98 122 149 179 184 217 185 225 223 223 237 189 192 259 215 200 175 223 220 243 245 299 305 320 311
77 70 72 83 94 101 107 102 96 99 104 117 103 97 50 51 17 206 266 128 117 11 44 338 76 6 320 131 122 117 252 275 166 191 337 311 303 297
84 85 86 90 91 91 84 68 60 69 73 92 80 53 61 23 28 27 20 47 94 314 69 334 11 341 312 154 143 141 106 53 291 304 304 306 297 294
92 90 90 96 95 87 79 70 59 61 64 74 85 86 81 47 46 131 10 341 75 46 76 27 345 354 347 351 240 93 243 276 266 285 295 299 299 294
76 69 63 70 101 104 100 99 88 78 86 94 98 92 78 63 58 58 17 45 31 21 12 76 332 337 353 346 46 69 332 302 293 287 287 302 307 303
71 62 78 77 83 124 119 117 113 142 119 94 86 108 96 76 69 76 63 52 42 18 319 38 339 29 340 311 357 334 318 314 331 340 307 299 293 280
90 74 67 85 76 75 82 88 105 97 92 96 73 48 54 59 51 62 48 35 17 15 343 48 337 359 307 305 312 305 344 322 316 320 323 317 326 288
100 88 86 89 84 80 74 81 75 58 46 54 66 55 52 35 15 14 23 5 14 305 300 87 254 326 296 282 288 326 316 302 297 309 327 328 323 322
101 101 95 88 80 72 76 65 53 43 52 60 70 58 52 24 23 6 8 5 353 350 47 29 26 325 321 262 279 290 315 295 346 322 312 327 319 315
98 90 100 101 94 80 64 57 54 58 63 58 61 46 30 9 8 6 18 340 5 357 357 352 358 3 300 284 284 291 293 304 323 305 304 301 299 300
116 88 82 80 80 73 59 57 48 49 63 61 54 36 34 24 6 359 22 4 3 332 327 331 355 334 299 264 298 299 287 325 296 294 304 297 292 291
99 103 94 95 94 96 96 74 54 59 51 62 53 34 32 21 11 360 4 358 352 339 347 326 325 344 340 327 67 330 331 301 280 288 298 291 280 291
97 96 100 101 98 86 87 91 90 65 62 61 58 54 28 20 12 6 358 353 348 342 330 330 337 342 340 324 282 359 303 291 278 290 278 270 277 298
102 114 111 108 104 102 100 107 119 101 85 72 58 60 48 12 10 7 359 344 345 343 334 331 340 329 324 316 309 286 293 289 286 276 270 271 267 306
118 108 112 113 110 107 98 87 102 112 103 78 55 41 20 3 11 6 354 354 353 329 331 320 298 322 318 326 332 308 298 314 334 257 270 290 284 301
132 118 120 116 115 121 124 124 120 90 88 74 57 49 7 1 33 335 332 313 330 337 323 308 314 316 312 301 308 316 308 315 322 325 329 346 199 265
141 128 130 126 128 127 121 104 105 102 86 88 80 327 321 23 302 295 309 18 355 336 330 328 325 325 330 330 336 316 315 314 308 341 317 327 330 312